Location: Beccas
(43.4309°N, 0.1528°E)
Time: 06:48:51
(UTC+00:00)

Cosmos 1703 - Pass Details

Date: 23 May 2022
Orbit: 518 x 535 km, 82.5° (Epoch: 06 July)

Event Time Altitude Azimuth Distance (km) Brightness Sun altitude
Exits shadow 03:46:04 - 230° (SW) 1,864 5.3 -7.1°
Reaches altitude 10° 03:46:17 10° 232° (SW) 1,788 5.2 -7.1°
Maximum altitude 03:49:30 24° 286° (WNW) 1,151 4.6 -6.6°
Drops below altitude 10° 03:52:43 10° 341° (NNW) 1,798 6.2 -6.2°
Sets 03:55:13 0° 356° (N) 2,692 7.3 -5.8°
